Showing default

BSAT-2A, 26720

Orbit data source: Space-Track

BSAT-2A, 26720 is a payload satellite owned by BSAT (JP) in GEO that was launched on Thu, 08 Mar 2001 UTC via an ARIANE 5G launch vehicle from the French Guiana (FRGUI). Payload-class satellites include a variety of spacecraft equipped with specific instruments for various scientific and technological missions. These include communications satellites like Starlink; space stations such as the ISS; scientific satellites like the Hubble; Earth observation satellites from companies like Planet Labs, Umbra, and HawkEye 360; GPS; miniature CubeSats for education and research; and military/defense satellites.

Not visible in the next 10 days
Identifier
26720, 2001-011B
Orbit
GEO
Country
Flag of JPJP / JPN
Related business
Manufacturer
OSCD?
Mission
Partially operational Commercial Communications
Bus & Motor
OSC STAR 1, STAR 30CBP
Mass
1,317 kg wet, 490 kg dry
Launch date (UTC)
2001-03-08 (25 years ago)
Launch vehicle
ARIANE 5G
Launch site
French Guiana (FRGUI)
Object type
Payload
Rocket body
Debris
Shape & HBR
Box + 2 Pan, 8.1 m
Radar Cross Section
21.750 m², Large (>1 m²)

Expand to show TLE details & history
Last TLE update: 17 hours ago

TLE from 17 hours ago
0 BSAT-2A
1 26720U 01011B   26035.07393076  .00000020  00000-0  00000-0 0  9993
2 26720  10.4498  48.7020 0007226 225.3114 326.2661  0.99174529 90653
Epoch: 2026-02-04T01:46Z
TLE epoch observation values (Epoch: 2026-02-04T01:46:27.617Z)
Latitude
-2.06654°
Longitude
79.2154°
Altitude
36,071.411 km
Speed
3.065 km/s
True Right ascension
16h 00m 18s
True Declination
-2° 03' 52"
Sunlit
Object was in daylight at epoch
Visualization orbit readout
Latitude
Unknown
Longitude
Unknown
Altitude
Unknown
Speed
Unknown
Apparent Right ascension
Unknown
Apparent Declination
Unknown
Sunlit
N/A
Visualization observer readout
Local Sidereal Time
21:05:48
Azimuth
Unknown
Elevation
Unknown
Doppler factor
Unknown
Orbital elements
Apogee altitude
36,128.733 km
Perigee altitude
36,067.347 km
Semi-major axis
42,476.177 km
Eccentricity
0.00072
Inclination
10.4498°
RAAN
48.702°
Arg. of periapsis
225.3114°
True anomaly
326.22008°
Mean anomaly
326.2661°
Eccentric anomaly
326.24309°
Mean motion
0.24793 °/min
Orbital period
1,452.04 mins
BSTAR
0
Loading maneuver chart data...
Computing Atmospheric mass density...
Loading historical data...
Loading historical data...
Loading historical data...
Loading historical data...
Loading historical data...
Loading historical data...
Loading historical data...
Other satellites on launch #11 in the year 2001 (2001-03-08 UTC)

Documentation

Showing up to 5 results
|